June 30, 2016
Temp
 
68.5 °F
 
Dew Pt.
 
61.7 °F
 
Humidity
 
79%
 
Pressure
 
1010.8 hPa 
  rising rapidly
Wind
 
0.0 mph 
    W
Rain
 
0.00 in 
  0.00 in/hr
UV index
 
---  
 
Solar rad.
 
100 W/m²
 
Tonight

Tonight: Patchy fog after 11pm.  Otherwise, increasing clouds, with a low around 62. Southwest wind 5 to 10 mph becoming light and variable  in the evening. Winds could gust as high as 15 mph.
Patchy Fog
Friday

Friday: Patchy fog before 11am.  Otherwise, mostly cloudy, then gradually becoming sunny, with a high near 88. Light and variable wind becoming south southwest 10 to 15 mph in the morning. Winds could gust as high as 20 mph.
Patchy Fog
then Sunny
Lo 62 °F Hi 88 °F
Statistics - 6/30/2016
Max Temp 92.5 °F  2:45 pm
Min Temp 64.1 °F  6:25 am
Max Dew Pt 66.6 °F  12:40 pm
Min Dew Pt 59.6 °F  4:05 am
Max Pressure 1011.0 hPa  11:00 pm
Min Pressure 1007.6 hPa  6:05 pm
Max Wind 10 mph  6:10 pm
Max UV —   —
Max Solar —   —
Max Rainfall Rate —   —
Total Precipitation —   
Current Temp 68.6 °F  11:05 pm
Temp 24hr ago 71.8 °F  11:05 pm
Difference -3.2 °F  
Temp Rate -1.8 °F/hr  
Pressure Rate -0.1 hPa/hr  
time temp dew pt pressure uv solar wind wind speed rainfall rate
00:00 70.9 °F 61.4 °F 1010.5 hPa  Calm    
00:05 70.8 °F 61.3 °F 1010.5 hPa  Calm    
00:10 70.7 °F 61.6 °F 1010.4 hPa  Calm    
00:15 70.6 °F 61.5 °F 1010.5 hPa  Calm    
00:20 70.5 °F 61.4 °F 1010.5 hPa  Calm    
00:25 70.4 °F 61.3 °F 1010.4 hPa  Calm    
00:30 70.3 °F 61.2 °F 1010.4 hPa  Calm    
00:35 70.2 °F 61.5 °F 1010.4 hPa  Calm    
00:40 70.1 °F 61.4 °F 1010.4 hPa  Calm    
00:45 70.0 °F 61.3 °F 1010.3 hPa  Calm    
00:50 69.9 °F 61.6 °F 1010.3 hPa  Calm    
00:55 69.8 °F 61.5 °F 1010.3 hPa  Calm    
01:00 69.7 °F 61.4 °F 1010.3 hPa  Calm    
01:05 69.6 °F 61.7 °F 1010.2 hPa  Calm    
01:10 69.5 °F 61.6 °F 1010.2 hPa  Calm    
01:15 69.3 °F 61.4 °F 1010.2 hPa  Calm    
01:20 69.2 °F 61.3 °F 1010.2 hPa  Calm    
01:25 69.1 °F 61.2 °F 1010.1 hPa  Calm    
01:30 69.0 °F 61.1 °F 1010.0 hPa  Calm    
01:35 68.9 °F 61.0 °F 1010.2 hPa  Calm    
01:40 68.8 °F 60.9 °F 1010.1 hPa  Calm    
01:45 68.6 °F 61.1 °F 1010.1 hPa  Calm    
01:50 68.3 °F 61.2 °F 1010.1 hPa  Calm    
01:55 67.7 °F 60.9 °F 1010.0 hPa  Calm    
02:00 67.4 °F 61.0 °F 1010.0 hPa  Calm    
02:05 67.3 °F 61.3 °F 1010.0 hPa  Calm    
02:10 67.3 °F 61.3 °F 1009.9 hPa  Calm    
02:15 67.3 °F 61.3 °F 1009.9 hPa  Calm    
02:20 67.3 °F 60.9 °F 1009.9 hPa  Calm    
02:25 67.2 °F 60.8 °F 1009.9 hPa  Calm    
02:30 67.2 °F 60.8 °F 1009.8 hPa  Calm    
02:35 67.1 °F 60.7 °F 1009.8 hPa  Calm    
02:40 67.1 °F 60.7 °F 1009.7 hPa  Calm    
02:45 67.0 °F 60.6 °F 1009.7 hPa  Calm    
02:50 66.9 °F 60.5 °F 1009.7 hPa  Calm    
02:55 66.8 °F 60.4 °F 1009.7 hPa  Calm    
03:00 66.8 °F 60.4 °F 1009.7 hPa  Calm    
03:05 66.7 °F 60.3 °F 1009.7 hPa  Calm    
03:10 66.6 °F 60.2 °F 1009.8 hPa  Calm    
03:15 66.5 °F 60.5 °F 1009.9 hPa  Calm    
03:20 66.4 °F 60.4 °F 1009.9 hPa  Calm    
03:25 66.3 °F 60.3 °F 1009.9 hPa  Calm    
03:30 66.2 °F 60.2 °F 1009.7 hPa  Calm    
03:35 66.2 °F 60.2 °F 1009.8 hPa  Calm    
03:40 66.1 °F 60.1 °F 1009.7 hPa  Calm    
03:45 66.0 °F 60.0 °F 1009.6 hPa  Calm    
03:50 65.9 °F 59.9 °F 1009.6 hPa  Calm    
03:55 65.8 °F 59.8 °F 1009.5 hPa  Calm    
04:00 65.7 °F 59.7 °F 1009.6 hPa  Calm    
04:05 65.6 °F 59.6 °F 1009.6 hPa  Calm    
04:10 65.6 °F 60.0 °F 1009.5 hPa  Calm    
04:15 65.5 °F 59.9 °F 1009.6 hPa  Calm    
04:20 65.4 °F 59.8 °F 1009.7 hPa  Calm    
04:25 65.3 °F 60.0 °F 1009.7 hPa  Calm    
04:30 65.2 °F 59.9 °F 1009.7 hPa  Calm    
04:35 65.1 °F 59.8 °F 1009.7 hPa  Calm    
04:40 65.1 °F 59.8 °F 1009.7 hPa  Calm    
04:45 65.1 °F 59.8 °F 1009.7 hPa  Calm    
04:50 65.0 °F 60.0 °F 1009.8 hPa  Calm    
04:55 64.9 °F 59.9 °F 1009.8 hPa  Calm    
05:00 64.9 °F 59.9 °F 1009.8 hPa  Calm    
05:05 64.9 °F 59.9 °F 1009.8 hPa  Calm    
05:10 64.8 °F 59.8 °F 1009.9 hPa  Calm    
05:15 64.7 °F 59.7 °F 1009.9 hPa  Calm    
05:20 64.7 °F 60.1 °F 1009.9 hPa  Calm    
05:25 64.6 °F 60.0 °F 1010.0 hPa  Calm    
05:30 64.6 °F 60.0 °F 1010.1 hPa  Calm    
05:35 64.5 °F 59.9 °F 1010.0 hPa  Calm    
05:40 64.5 °F 59.9 °F 1010.0 hPa  Calm    
05:45 64.4 °F 59.8 °F 1010.0 hPa  Calm    
05:50 64.4 °F 59.8 °F 1010.1 hPa  Calm    
05:55 64.3 °F 59.7 °F 1010.1 hPa  Calm    
06:00 64.3 °F 59.7 °F 1010.2 hPa  Calm    
06:05 64.2 °F 59.9 °F 1010.2 hPa  Calm    
06:10 64.2 °F 59.9 °F 1010.2 hPa  Calm    
06:15 64.2 °F 59.9 °F 1010.3 hPa  Calm    
06:20 64.1 °F 59.8 °F 1010.3 hPa  Calm    
06:25 64.2 °F 60.2 °F 1010.2 hPa  Calm    
06:30 64.2 °F 60.2 °F 1010.2 hPa  Calm    
06:35 64.2 °F 60.2 °F 1010.3 hPa  Calm    
06:40 64.3 °F 60.7 °F 1010.3 hPa  Calm    
06:45 64.7 °F 61.1 °F 1010.2 hPa  Calm    
06:50 64.9 °F 61.3 °F 1010.3 hPa  Calm    
06:55 65.1 °F 61.8 °F 1010.3 hPa  Calm    
07:00 65.4 °F 62.1 °F 1010.4 hPa  Calm    
07:05 65.7 °F 62.4 °F 1010.5 hPa  Calm    
07:10 66.0 °F 62.3 °F 1010.4 hPa  WSW 2 mph   
07:15 66.3 °F 62.6 °F 1010.4 hPa  Calm    
07:20 66.6 °F 62.9 °F 1010.6 hPa  Calm    
07:25 66.9 °F 62.9 °F 1010.6 hPa  Calm    
07:30 67.0 °F 63.0 °F 1010.6 hPa  Calm    
07:35 67.2 °F 62.9 °F 1010.6 hPa  Calm    
07:40 67.3 °F 63.0 °F 1010.7 hPa  Calm    
07:45 67.5 °F 62.8 °F 1010.7 hPa  Calm    
07:50 67.9 °F 62.9 °F 1010.7 hPa  Calm    
07:55 68.4 °F 63.4 °F 1010.7 hPa  Calm    
08:00 68.8 °F 63.4 °F 1010.7 hPa  Calm    
08:05 69.2 °F 63.5 °F 1010.6 hPa  Calm    
08:10 69.3 °F 63.2 °F 1010.6 hPa  Calm    
08:15 70.0 °F 64.2 °F 1010.6 hPa  Calm    
08:20 70.5 °F 64.0 °F 1010.7 hPa  Calm    
08:25 70.6 °F 63.8 °F 1010.7 hPa  Calm    
08:30 71.0 °F 63.8 °F 1010.7 hPa  Calm    
08:35 71.1 °F 63.9 °F 1010.7 hPa  Calm    
08:40 71.9 °F 64.3 °F 1010.6 hPa  Calm    
08:45 72.4 °F 64.0 °F 1010.7 hPa  Calm    
08:50 73.0 °F 64.2 °F 1010.8 hPa  Calm    
08:55 73.4 °F 64.6 °F 1010.8 hPa  Calm    
09:00 73.7 °F 64.1 °F 1010.7 hPa  Calm    
09:05 74.3 °F 64.3 °F 1010.7 hPa  Calm    
09:10 74.4 °F 64.4 °F 1010.7 hPa  Calm    
09:15 74.8 °F 64.8 °F 1010.6 hPa  Calm    
09:20 75.3 °F 64.4 °F 1010.7 hPa  Calm    
09:25 75.7 °F 65.2 °F 1010.7 hPa  Calm    
09:30 76.1 °F 65.2 °F 1010.8 hPa  Calm    
09:35 76.6 °F 65.2 °F 1010.8 hPa  Calm    
09:40 77.2 °F 64.9 °F 1010.8 hPa  Calm    
09:45 77.2 °F 65.4 °F 1010.8 hPa  Calm    
09:50 77.9 °F 65.2 °F 1010.8 hPa  SW 4 mph   
09:55 77.6 °F 65.3 °F 1010.7 hPa  WSW 3 mph   
10:00 77.6 °F 65.3 °F 1010.6 hPa  Calm    
10:05 78.3 °F 65.1 °F 1010.7 hPa  Calm    
10:10 78.9 °F 65.7 °F 1010.6 hPa  S 4 mph   
10:15 79.5 °F 65.3 °F 1010.7 hPa  SW 3 mph   
10:20 79.6 °F 65.4 °F 1010.7 hPa  SW 3 mph   
10:25 79.9 °F 66.2 °F 1010.8 hPa  SSW 4 mph   
10:30 80.5 °F 65.8 °F 1010.8 hPa  SSW 3 mph   
10:35 80.9 °F 65.7 °F 1010.8 hPa  SSW 4 mph   
10:40 81.5 °F 65.8 °F 1010.9 hPa  SSW 5 mph   
10:45 82.0 °F 65.7 °F 1010.9 hPa  S 6 mph   
10:50 82.3 °F 65.5 °F 1010.8 hPa  SW 5 mph   
10:55 83.0 °F 66.2 °F 1010.9 hPa  Calm    
11:00 83.1 °F 65.8 °F 1010.8 hPa  W 6 mph   
11:05 83.3 °F 65.9 °F 1010.8 hPa  W 6 mph   
11:10 83.4 °F 65.5 °F 1010.8 hPa  SW 2 mph   
11:15 83.8 °F 65.9 °F 1010.8 hPa  SW 7 mph   
11:20 83.4 °F 65.5 °F 1010.6 hPa  SSW 1 mph   
11:25 83.9 °F 66.0 °F 1010.6 hPa  SSW 6 mph   
11:30 85.3 °F 66.2 °F 1010.6 hPa  SSE 1 mph   
11:35 85.4 °F 66.3 °F 1010.5 hPa  SW 4 mph   
11:40 85.7 °F 66.0 °F 1010.5 hPa  WSW 4 mph   
11:45 86.1 °F 65.8 °F 1010.4 hPa  SSW 4 mph   
11:50 86.4 °F 66.1 °F 1010.3 hPa  SSW 1 mph   
11:55 86.7 °F 66.4 °F 1010.3 hPa  SSW 7 mph   
12:00 86.5 °F 65.6 °F 1010.2 hPa  WSW 6 mph   
12:05 86.8 °F 65.9 °F 1010.2 hPa  SW 7 mph   
12:10 86.9 °F 66.0 °F 1010.1 hPa  SW 5 mph   
12:15 86.8 °F 65.9 °F 1010.1 hPa  SSW 5 mph   
12:20 87.9 °F 66.3 °F 1010.1 hPa  W 4 mph   
12:25 87.8 °F 66.2 °F 1010.0 hPa  SW 5 mph   
12:30 88.0 °F 66.4 °F 1010.0 hPa  W 5 mph   
12:35 88.6 °F 66.4 °F 1010.0 hPa  SW 5 mph   
12:40 88.9 °F 66.6 °F 1010.1 hPa  WSW 5 mph   
12:45 88.7 °F 66.4 °F 1010.1 hPa  W 6 mph   
12:50 89.3 °F 65.8 °F 1010.0 hPa  S 5 mph   
12:55 89.4 °F 65.9 °F 1010.0 hPa  S 5 mph   
13:00 90.1 °F 66.5 °F 1009.9 hPa  S 5 mph   
13:05 89.9 °F 66.3 °F 1009.9 hPa  WSW 8 mph   
13:10 89.7 °F 66.1 °F 1009.9 hPa  SW 5 mph   
13:15 89.9 °F 66.3 °F 1009.8 hPa  SW 5 mph   
13:20 90.8 °F 65.8 °F 1009.8 hPa  SW 6 mph   
13:25 91.3 °F 66.3 °F 1009.9 hPa  SW 7 mph   
13:30 91.4 °F 66.4 °F 1009.7 hPa  W 6 mph   
13:35 91.5 °F 66.5 °F 1009.7 hPa  WSW 5 mph   
13:40 92.0 °F 66.3 °F 1009.7 hPa  SW 5 mph   
13:45 92.1 °F 66.3 °F 1009.8 hPa  W 9 mph   
13:50 92.2 °F 65.8 °F 1009.7 hPa  SW 6 mph   
13:55 91.8 °F 66.1 °F 1009.8 hPa  SSW 6 mph   
14:00 92.1 °F 66.3 °F 1009.7 hPa  SSW 4 mph   
14:05 91.8 °F 65.4 °F 1009.7 hPa  SW 4 mph   
14:10 90.8 °F 65.8 °F 1009.6 hPa  SW 7 mph   
14:15 91.3 °F 65.6 °F 1009.5 hPa  SW 8 mph   
14:20 91.9 °F 65.5 °F 1009.5 hPa  SW 6 mph   
14:25 92.1 °F 65.7 °F 1009.4 hPa  SSW 7 mph   
14:30 92.1 °F 65.0 °F 1009.4 hPa  SSW 7 mph   
14:35 91.9 °F 64.8 °F 1009.4 hPa  SW 7 mph   
14:40 92.1 °F 66.3 °F 1009.4 hPa  SW 7 mph   
14:45 92.3 °F 65.1 °F 1009.4 hPa  WSW 9 mph   
14:50 91.8 °F 64.7 °F 1009.3 hPa  WSW 8 mph   
14:55 91.4 °F 63.6 °F 1009.2 hPa  W 6 mph   
15:00 91.3 °F 64.3 °F 1009.2 hPa  SW 5 mph   
15:05 91.4 °F 63.6 °F 1009.2 hPa  SW 7 mph   
15:10 90.6 °F 63.6 °F 1009.1 hPa  SSW 6 mph   
15:15 90.4 °F 63.5 °F 1009.1 hPa  SW 8 mph   
15:20 90.5 °F 64.2 °F 1009.0 hPa  SSE 7 mph   
15:25 90.6 °F 63.6 °F 1008.9 hPa  SW 8 mph   
15:30 90.9 °F 63.9 °F 1008.8 hPa  SW 4 mph   
15:35 91.3 °F 63.5 °F 1008.7 hPa  W 7 mph   
15:40 91.2 °F 63.5 °F 1008.7 hPa  SSW 6 mph   
15:45 91.0 °F 63.3 °F 1008.6 hPa  SW 7 mph   
15:50 91.0 °F 63.3 °F 1008.5 hPa  WSW 7 mph   
15:55 90.4 °F 63.5 °F 1008.4 hPa  W 7 mph   
16:00 90.2 °F 64.0 °F 1008.4 hPa  SSW 7 mph   
16:05 90.6 °F 63.6 °F 1008.3 hPa  WSW 7 mph   
16:10 90.8 °F 63.1 °F 1008.2 hPa  SSW 5 mph   
16:15 90.9 °F 63.2 °F 1008.3 hPa  W 5 mph   
16:20 91.1 °F 63.4 °F 1008.3 hPa  SW 5 mph   
16:25 90.2 °F 63.3 °F 1008.4 hPa  SW 7 mph   
16:30 90.4 °F 64.1 °F 1008.3 hPa  SW 4 mph   
16:35 90.6 °F 63.6 °F 1008.2 hPa  SW 8 mph   
16:40 90.6 °F 63.6 °F 1008.2 hPa  SW 6 mph   
16:45 90.1 °F 63.9 °F 1008.2 hPa  WSW 7 mph   
16:50 89.9 °F 63.0 °F 1008.1 hPa  SW 5 mph   
16:55 89.8 °F 63.6 °F 1008.0 hPa  WSW 6 mph   
17:00 90.2 °F 63.3 °F 1008.0 hPa  SW 6 mph   
17:05 90.4 °F 63.5 °F 1007.9 hPa  SSW 5 mph   
17:10 90.1 °F 63.9 °F 1007.9 hPa  SW 4 mph   
17:15 89.7 °F 63.5 °F 1007.9 hPa  SW 6 mph   
17:20 89.5 °F 63.3 °F 1007.9 hPa  SW 6 mph   
17:25 88.8 °F 64.0 °F 1007.8 hPa  SSW 5 mph   
17:30 88.6 °F 63.9 °F 1007.9 hPa  SSW 3 mph   
17:35 88.5 °F 64.4 °F 1007.8 hPa  W 3 mph   
17:40 88.0 °F 64.0 °F 1007.9 hPa  SSW 6 mph   
17:45 87.8 °F 64.4 °F 1007.9 hPa  SW 5 mph   
17:50 87.4 °F 64.0 °F 1007.8 hPa  W 8 mph   
17:55 86.7 °F 64.0 °F 1007.8 hPa  W 8 mph   
18:00 86.5 °F 64.4 °F 1007.7 hPa  W 7 mph   
18:05 86.3 °F 64.3 °F 1007.7 hPa  WSW 7 mph   
18:10 85.8 °F 64.4 °F 1007.7 hPa  WSW 10 mph   
18:15 85.1 °F 63.8 °F 1007.7 hPa  WSW 8 mph   
18:20 85.0 °F 64.2 °F 1007.8 hPa  W 8 mph   
18:25 84.1 °F 64.0 °F 1007.8 hPa  WSW 8 mph   
18:30 83.6 °F 64.1 °F 1007.9 hPa  WSW 6 mph   
18:35 83.2 °F 64.3 °F 1007.8 hPa  SW 7 mph   
18:40 82.8 °F 64.4 °F 1007.8 hPa  W 7 mph   
18:45 82.4 °F 64.1 °F 1007.9 hPa  WSW 6 mph   
18:50 82.2 °F 63.9 °F 1007.9 hPa  SW 9 mph   
18:55 81.8 °F 64.0 °F 1008.0 hPa  WSW 8 mph   
19:00 81.1 °F 63.9 °F 1008.1 hPa  WSW 6 mph   
19:05 80.6 °F 63.9 °F 1008.2 hPa  WNW 4 mph   
19:10 80.3 °F 64.2 °F 1008.2 hPa  WSW 6 mph   
19:15 79.9 °F 63.8 °F 1008.3 hPa  WSW 6 mph   
19:20 79.6 °F 64.0 °F 1008.4 hPa  WNW 4 mph   
19:25 79.4 °F 64.3 °F 1008.5 hPa  SW 6 mph   
19:30 79.1 °F 64.5 °F 1008.6 hPa  WSW 3 mph   
19:35 78.6 °F 64.0 °F 1008.6 hPa  WSW 3 mph   
19:40 78.4 °F 64.3 °F 1008.6 hPa  W 4 mph   
19:45 78.0 °F 64.4 °F 1008.5 hPa  W 4 mph   
19:50 77.5 °F 63.9 °F 1008.6 hPa  W 4 mph   
19:55 77.0 °F 63.9 °F 1008.7 hPa  SW 3 mph   
20:00 76.7 °F 63.6 °F 1008.7 hPa  WSW 5 mph   
20:05 76.2 °F 63.6 °F 1008.8 hPa  WNW 5 mph   
20:10 75.5 °F 63.3 °F 1008.8 hPa  W 4 mph   
20:15 75.3 °F 63.6 °F 1008.8 hPa  WSW 2 mph   
20:20 74.9 °F 63.6 °F 1008.9 hPa  WSW 4 mph   
20:25 74.4 °F 63.6 °F 1009.1 hPa  W 4 mph   
20:30 73.9 °F 63.5 °F 1009.2 hPa  WSW 2 mph   
20:35 73.5 °F 63.5 °F 1009.3 hPa  WNW 2 mph   
20:40 73.3 °F 63.7 °F 1009.5 hPa  WNW 2 mph   
20:45 73.1 °F 63.5 °F 1009.6 hPa  W 3 mph   
20:50 72.8 °F 63.6 °F 1009.7 hPa  WSW 2 mph   
20:55 72.6 °F 63.4 °F 1009.7 hPa  W 3 mph   
21:00 72.5 °F 63.7 °F 1009.7 hPa  W 1 mph   
21:05 72.3 °F 63.5 °F 1009.7 hPa  W 2 mph   
21:10 72.1 °F 63.3 °F 1009.8 hPa  Calm    
21:15 71.9 °F 63.5 °F 1010.0 hPa  Calm    
21:20 71.8 °F 63.4 °F 1010.1 hPa  WNW 3 mph   
21:25 71.6 °F 62.9 °F 1010.2 hPa  W 1 mph   
21:30 71.4 °F 62.7 °F 1010.4 hPa  W 1 mph   
21:35 71.3 °F 62.6 °F 1010.4 hPa  W 2 mph   
21:40 71.1 °F 62.8 °F 1010.5 hPa  Calm    
21:45 70.9 °F 62.6 °F 1010.6 hPa  Calm    
21:50 70.7 °F 62.4 °F 1010.6 hPa  Calm    
21:55 70.5 °F 62.2 °F 1010.7 hPa  Calm    
22:00 70.4 °F 62.5 °F 1010.8 hPa  Calm    
22:05 70.1 °F 62.2 °F 1010.8 hPa  Calm    
22:10 69.9 °F 62.4 °F 1010.9 hPa  Calm    
22:15 69.8 °F 62.3 °F 1010.9 hPa  Calm    
22:20 69.7 °F 62.2 °F 1011.0 hPa  Calm    
22:25 69.6 °F 62.4 °F 1011.0 hPa  Calm    
22:30 69.5 °F 62.0 °F 1010.9 hPa  Calm    
22:35 69.4 °F 62.2 °F 1010.9 hPa  Calm    
22:40 69.3 °F 62.1 °F 1011.0 hPa  Calm    
22:45 69.2 °F 62.0 °F 1011.0 hPa  Calm    
22:50 69.1 °F 61.9 °F 1011.0 hPa  Calm    
22:55 68.8 °F 61.7 °F 1011.0 hPa  Calm    
23:00 68.7 °F 61.9 °F 1011.0 hPa  Calm    
23:05 68.6 °F 61.8 °F 1011.0 hPa  Calm